[[{"header":{"parameterUnit":"m.s-1","parameterCategory":1,"la1":30.2991,"la2":30.254,"lo1":-89.0895,"lo2":-89.0444,"dy":0.0017,"dx":0.0017,"nx":28,"ny":28,"refTime":"2024-10-06T09:00:00:Z","depth":0,"parameterNumber":2,"parameterNumberName":"U-component_of_WINDS"},"data":[0,0,0,0,0,0,0,0,0,0,0,0,0,0,0,0,0,0,0,0,0,0,0,0,0,0,0,0,0,0,0,0,0,0,0,0,0,0,0,0,0,0,0,0,0,0,0,0,0,0,0,0,0,0,0,0,0,0,-1.7892,-1.7893,0,-1.7967,-1.7967,-1.7968,-1.7926,-1.7924,-1.7922,-1.792,-1.7998,-1.8002,-1.8006,0,0,0,0,0,0,0,0,0,0,0,0,0,-1.7715,-1.7718,-1.7892,-1.7893,-1.7894,-1.7966,-1.7968,-1.7969,-1.7927,-1.7924,-1.7922,-1.7919,-1.7997,-1.8002,-1.8007,0,0,0,0,0,0,0,0,0,0,0,0,0,-1.7791,-1.7719,-1.7892,-1.7882,-1.7882,-1.7966,-1.7968,-1.7969,-1.7927,-1.7924,-1.7921,-1.7918,-1.7996,-1.8001,-1.8007,-1.8107,0,0,-1.8026,-1.8028,0,0,0,0,0,0,0,0,-1.7787,-1.7797,-1.7882,-1.7883,-1.7883,-1.7934,-1.7934,-1.8015,-1.7928,-1.791,-1.792,-1.7917,-1.798,-1.7987,-1.8008,-1.8111,-1.8114,-1.8026,-1.803,-1.8033,-1.8034,0,0,0,0,0,0,0,-1.7781,-1.7794,-1.7922,-1.7884,-1.7884,-1.7874,-1.7881,-1.7949,-1.7961,-1.7911,-1.7908,-1.7918,-1.7979,-1.8002,-1.8009,-1.8115,-1.8026,-1.8032,-1.8035,-1.8038,-1.8304,-1.8307,0,0,0,0,0,0,-1.7777,-1.779,-1.7919,-1.7924,-1.7826,-1.788,-1.7888,-1.7921,-1.7961,-1.7964,-1.792,-1.7916,-1.7993,-1.8002,-1.8012,-1.8132,-1.8033,-1.8038,-1.8042,-1.83,-1.8304,-1.8308,0,0,0,0,0,0,-1.7773,-1.7788,-1.7916,-1.7856,-1.7872,-1.7886,-1.7923,-1.7924,-1.7947,-1.7967,-1.797,-1.7941,-1.7991,-1.8003,-1.8083,-1.8134,-1.8041,-1.8046,-1.8296,-1.8301,-1.8306,-1.8372,0,0,0,0,0,0,-1.7768,-1.7787,-1.7825,-1.7857,-1.7875,-1.7987,-1.7926,-1.7927,-1.7957,-1.7951,-1.7988,-1.7991,-1.799,-1.8075,-1.809,-1.8141,-1.8051,-1.8292,-1.8298,-1.8304,-1.8366,-1.8379,-1.839,0,0,0,0,0,-1.7762,-1.7841,-1.7827,-1.7843,-1.7922,-1.799,-1.8,-1.7997,-1.7961,-1.8,-1.8013,-1.799,-1.8125,-1.8083,-1.81,-1.8153,-1.8288,-1.8296,-1.8304,-1.836,-1.8376,-1.839,0,0,0,0,0,0,-1.7816,-1.7845,-1.783,-1.7922,-1.7954,-1.7982,-1.8031,-1.8014,-1.8056,-1.805,-1.8044,-1.8052,-1.8136,-1.8152,-1.8105,-1.8252,-1.8201,-1.8213,-1.8239,-1.8254,-1.8266,-1.8262,-1.8056,0,0,0,0,0,-1.7838,-1.789,-1.7913,-1.7992,-1.8008,-1.8017,-1.8046,-1.804,-1.8073,-1.8086,-1.8105,-1.8138,-1.8188,-1.8222,-1.8269,-1.8367,-1.8375,-1.8411,-1.8424,-1.8434,-1.8445,-1.8498,-1.8515,-1.8333,-1.8333,-1.8333,0,0,-1.7885,-1.7908,-1.7941,-1.8003,-1.8027,-1.8081,-1.8028,-1.8088,-1.8128,-1.8096,-1.8173,-1.8188,-1.8224,-1.8314,-1.8354,-1.833,-1.8496,-1.8444,-1.8452,-1.8457,-1.8508,-1.8525,-1.8541,-1.8339,-1.8338,-1.8337,0,0,-1.8,-1.8021,-1.809,-1.8114,-1.815,-1.8155,-1.8172,-1.8203,-1.8212,-1.8289,-1.8265,-1.8313,-1.8399,-1.8426,-1.8451,-1.8574,-1.8555,-1.859,-1.8656,-1.8708,-1.8722,-1.8735,-1.878,-1.8797,-1.86,-1.86,-1.86,0,-1.8054,-1.8135,-1.8127,-1.8189,-1.8217,-1.8189,-1.8258,-1.8283,-1.8333,-1.8353,-1.8324,-1.8432,-1.8454,-1.855,-1.858,-1.8601,-1.862,-1.8587,-1.8721,-1.8733,-1.8745,-1.8788,-1.8805,-1.8604,-1.8604,-1.8603,-1.8603,0,-1.8201,-1.8257,-1.8308,-1.8356,-1.839,-1.8455,-1.8458,-1.8493,-1.8484,-1.8492,-1.8571,-1.8597,-1.8649,-1.867,-1.8663,-1.8766,-1.875,-1.8721,-1.8671,-1.8767,-1.8807,-1.8824,-1.861,-1.8608,-1.8607,-1.8606,0,0,-1.8354,-1.8396,-1.8415,-1.8437,-1.8474,-1.8518,-1.8581,-1.8631,-1.8662,-1.8697,-1.8751,-1.8824,-1.8798,-1.8826,-1.8821,-1.8866,-1.8964,-1.8832,-1.8833,-1.8857,-1.908,-1.9103,-1.9122,-1.895,-1.8953,-1.8955,-1.9078,0,-1.8472,-1.8583,-1.8578,-1.8683,-1.8735,-1.8708,-1.8763,-1.8792,-1.8801,-1.8847,-1.8856,-1.8909,-1.8869,-1.8886,-1.893,-1.8943,-1.9009,-1.8933,-1.9002,-1.9004,-1.8996,-1.9143,-1.9168,-1.9282,-1.9093,-1.9096,-1.9098,0,-1.8625,-1.8665,-1.8775,-1.8804,-1.8826,-1.8876,-1.8922,-1.8965,-1.8997,-1.9,-1.9032,-1.9018,-1.9083,-1.9029,-1.9119,-1.9068,-1.9095,-1.9106,-1.911,-1.9118,-1.9059,-1.9158,-1.9319,-1.9337,-1.9123,-1.9121,-1.9119,0,-1.8728,-1.8809,-1.8885,-1.8904,-1.894,-1.8976,-1.8992,-1.9021,-1.9052,-1.9091,-1.9111,-1.9158,-1.9184,-1.922,-1.922,-1.9181,-1.9312,-1.9258,-1.9317,-1.9318,-1.9348,-1.9347,-1.9518,-1.9362,-1.9362,-1.9362,-1.9361,0,-1.8862,-1.8931,-1.8932,-1.8979,-1.9055,-1.9048,-1.9124,-1.9136,-1.9162,-1.9212,-1.919,-1.9237,-1.9233,-1.928,-1.928,-1.9355,-1.9367,-1.9372,-1.9372,-1.9375,-1.9375,-1.9395,-1.9388,-1.9366,-1.9365,-1.9364,-1.9363,0,-1.8992,-1.8994,-1.9076,-1.9102,-1.9111,-1.9166,-1.9188,-1.9233,-1.9239,-1.9302,-1.9317,-1.9326,-1.9381,-1.9384,-1.9447,-1.9447,-1.9539,-1.9528,-1.9528,-1.9527,-1.9587,-1.9582,-1.9779,-1.9805,-1.963,-1.9632,-1.9633,0,-1.9078,-1.913,-1.9162,-1.9193,-1.9212,-1.9262,-1.9293,-1.9287,-1.932,-1.936,-1.9401,-1.9453,-1.9495,-1.9583,-1.9597,-1.9645,-1.9637,-1.9702,-1.9644,-1.9646,-1.964,-1.9638,-1.9644,-1.9715,-1.9716,-1.9718,-1.9719,0,-1.9232,-1.9231,-1.9276,-1.9321,-1.9358,-1.9394,-1.9427,-1.9454,-1.9452,-1.949,-1.9545,-1.9578,-1.9641,-1.9694,-1.9741,-1.9758,-1.9739,-1.9737,-1.9754,-1.9759,-1.9758,-1.9761,-1.9562,-1.9733,-1.9732,-1.9731,-1.973,-1.9729,-1.9344,-1.939,-1.9419,-1.947,-1.9493,-1.9525,-1.9568,-1.9579,-1.9625,-1.9676,-1.967,-1.9732,-1.9762,-1.9822,-1.9843,-1.9891,-1.9869,-1.9893,-1.9899,-1.9906,-1.9913,-1.9748,-1.9899,-1.9899,-1.9899,-1.9898,-1.9898,0,-1.9499,-1.9516,-1.9562,-1.9609,-1.9649,-1.9626,-1.9661,-1.9696,-1.9751,-1.978,-1.9821,-1.9885,-1.9935,-1.9952,-2.0001,-2.0036,-2.0029,-2.005,-2.0048,-2.0053,-1.9929,-1.9911,-2.0055,-2.0055,-2.0055,-2.0055,-2.0055,-2.0055,-1.9584,-1.966,-1.9662,-1.9749,-1.9766,-1.9826,-1.9848,-1.9877,-1.99,-1.9972,-2.0014,-2.0023,-2.0048,-2.0098,-2.0144,-2.0147,-2.0167,-2.0192,-2.0192,-2.0077,-2.0062,-2.0047,-2.0029,-2.0196,-2.0196,-2.0312,-2.0313,-2.0314]},{"header":{"parameterUnit":"m.s-1","parameterCategory":1,"la1":30.2991,"la2":30.254,"lo1":-89.0895,"lo2":-89.0444,"dy":0.0017,"dx":0.0017,"nx":28,"ny":28,"refTime":"2024-10-06T09:00:00:Z","depth":0,"parameterNumber":3,"parameterNumberName":"V-component_of_WINDS"},"data":[0,0,0,0,0,0,0,0,0,0,0,0,0,0,0,0,0,0,0,0,0,0,0,0,0,0,0,0,0,0,0,0,0,0,0,0,0,0,0,0,0,0,0,0,0,0,0,0,0,0,0,0,0,0,0,0,0,0,-6.1084,-6.1084,0,-6.1151,-6.1152,-6.1152,-6.1056,-6.1053,-6.1049,-6.1046,-6.111,-6.1115,-6.112,0,0,0,0,0,0,0,0,0,0,0,0,0,-6.0867,-6.0871,-6.1084,-6.1085,-6.1085,-6.1151,-6.1152,-6.1153,-6.1057,-6.1053,-6.1048,-6.1045,-6.1109,-6.1114,-6.112,0,0,0,0,0,0,0,0,0,0,0,0,0,-6.095,-6.0873,-6.1084,-6.1046,-6.1043,-6.1151,-6.1152,-6.1153,-6.1058,-6.1052,-6.1047,-6.1043,-6.1107,-6.1114,-6.1121,-6.1268,0,0,-6.1143,-6.1147,0,0,0,0,0,0,0,0,-6.0945,-6.0958,-6.105,-6.1048,-6.1045,-6.109,-6.1099,-6.1191,-6.1059,-6.1052,-6.1046,-6.104,-6.1107,-6.1114,-6.1138,-6.1271,-6.1274,-6.1144,-6.1149,-6.1152,-6.1154,0,0,0,0,0,0,0,-6.094,-6.0955,-6.111,-6.1052,-6.1049,-6.1023,-6.1029,-6.1116,-6.1107,-6.1052,-6.1045,-6.1055,-6.1105,-6.1131,-6.1139,-6.1275,-6.1144,-6.115,-6.1155,-6.1158,-6.153,-6.1536,0,0,0,0,0,0,-6.0939,-6.0951,-6.1108,-6.1112,-6.0982,-6.1031,-6.1038,-6.1081,-6.1106,-6.1105,-6.1059,-6.105,-6.1121,-6.113,-6.1141,-6.1314,-6.1152,-6.1158,-6.1163,-6.1525,-6.1532,-6.1538,0,0,0,0,0,0,-6.0935,-6.0954,-6.1105,-6.103,-6.1047,-6.1041,-6.1089,-6.1085,-6.1111,-6.1111,-6.1109,-6.1088,-6.1118,-6.113,-6.1237,-6.1315,-6.1162,-6.1168,-6.1518,-6.1527,-6.1535,-6.1663,0,0,0,0,0,0,-6.0929,-6.0953,-6.1011,-6.1032,-6.1051,-6.1203,-6.1094,-6.109,-6.1124,-6.1113,-6.1138,-6.1137,-6.1114,-6.1227,-6.1244,-6.1322,-6.1174,-6.1511,-6.1522,-6.1532,-6.1651,-6.1674,-6.1694,0,0,0,0,0,-6.0922,-6.1043,-6.1014,-6.1033,-6.1123,-6.1208,-6.1218,-6.1192,-6.1131,-6.1187,-6.1187,-6.1136,-6.1304,-6.1239,-6.1258,-6.1339,-6.1506,-6.1519,-6.1531,-6.1642,-6.167,-6.1693,0,0,0,0,0,0,-6.103,-6.1045,-6.1013,-6.1145,-6.1176,-6.1191,-6.1262,-6.1222,-6.127,-6.1257,-6.1221,-6.1227,-6.1342,-6.135,-6.1278,-6.1482,-6.1394,-6.1411,-6.1472,-6.1499,-6.1519,-6.1515,-6.118,0,0,0,0,0,-6.1069,-6.1138,-6.1147,-6.1262,-6.128,-6.1269,-6.1304,-6.1281,-6.1311,-6.1323,-6.1331,-6.136,-6.1419,-6.1459,-6.1514,-6.1652,-6.1655,-6.1717,-6.1738,-6.1755,-6.177,-6.1843,-6.1871,-6.1578,-6.1578,-6.1578,0,0,-6.115,-6.1167,-6.1213,-6.1285,-6.1306,-6.1377,-6.128,-6.1359,-6.1411,-6.1334,-6.1436,-6.1443,-6.1473,-6.1597,-6.1651,-6.1608,-6.1852,-6.1771,-6.1785,-6.1791,-6.1859,-6.1887,-6.1911,-6.1587,-6.1585,-6.1584,0,0,-6.1336,-6.1356,-6.1454,-6.1478,-6.1511,-6.1503,-6.1527,-6.1548,-6.155,-6.1652,-6.1596,-6.1656,-6.1759,-6.1783,-6.1808,-6.2002,-6.1956,-6.202,-6.2131,-6.2203,-6.2226,-6.2246,-6.2315,-6.234,-6.2035,-6.2036,-6.2036,0,-6.1432,-6.1539,-6.1509,-6.1593,-6.1625,-6.1561,-6.1659,-6.1682,-6.1732,-6.1755,-6.1706,-6.1833,-6.1849,-6.1977,-6.2024,-6.2047,-6.2072,-6.2018,-6.2225,-6.2245,-6.2263,-6.2329,-6.2355,-6.2043,-6.2042,-6.2041,-6.2041,0,-6.1656,-6.173,-6.1805,-6.1857,-6.1897,-6.1988,-6.197,-6.2015,-6.1988,-6.1984,-6.2088,-6.2104,-6.2161,-6.2189,-6.2163,-6.2313,-6.2285,-6.2231,-6.2143,-6.23,-6.236,-6.2385,-6.2054,-6.2051,-6.2049,-6.2047,0,0,-6.1912,-6.1945,-6.1973,-6.1996,-6.2028,-6.2084,-6.217,-6.2227,-6.2266,-6.2302,-6.2373,-6.2461,-6.2411,-6.244,-6.2416,-6.2479,-6.2631,-6.2417,-6.2417,-6.2456,-6.2797,-6.2838,-6.2867,-6.26,-6.2605,-6.2609,-6.2794,0,-6.2097,-6.2249,-6.2224,-6.2371,-6.2439,-6.2378,-6.2453,-6.248,-6.2478,-6.2534,-6.2531,-6.2595,-6.2524,-6.2541,-6.2601,-6.26,-6.2699,-6.2586,-6.2665,-6.2668,-6.266,-6.2899,-6.2943,-6.3117,-6.2818,-6.2822,-6.2825,0,-6.2333,-6.238,-6.2534,-6.2555,-6.2582,-6.2651,-6.2701,-6.2755,-6.2784,-6.2778,-6.2811,-6.2775,-6.2859,-6.2769,-6.2885,-6.2809,-6.2839,-6.2843,-6.2849,-6.2856,-6.2757,-6.2912,-6.3172,-6.3199,-6.2862,-6.2859,-6.2856,0,-6.2505,-6.2605,-6.271,-6.2731,-6.2759,-6.2808,-6.2821,-6.2845,-6.2881,-6.2923,-6.2946,-6.2997,-6.3025,-6.3065,-6.3043,-6.298,-6.3162,-6.3071,-6.3159,-6.316,-6.3201,-6.3199,-6.347,-6.322,-6.322,-6.3219,-6.3219,0,-6.2714,-6.2811,-6.2788,-6.2853,-6.2958,-6.2928,-6.3033,-6.3038,-6.306,-6.3123,-6.3073,-6.3133,-6.31,-6.3157,-6.314,-6.3238,-6.3251,-6.3248,-6.3242,-6.3253,-6.3253,-6.3273,-6.326,-6.3226,-6.3224,-6.3223,-6.3222,0,-6.2924,-6.2913,-6.3023,-6.3041,-6.3047,-6.3124,-6.3138,-6.3197,-6.3191,-6.3272,-6.3289,-6.328,-6.3345,-6.3326,-6.3396,-6.3384,-6.3508,-6.3487,-6.35,-6.3495,-6.3584,-6.3576,-6.3877,-6.3915,-6.3641,-6.3643,-6.3646,0,-6.3059,-6.3133,-6.3158,-6.3198,-6.3215,-6.328,-6.3316,-6.3288,-6.3328,-6.3365,-6.342,-6.3481,-6.3528,-6.3633,-6.3631,-6.3684,-6.3664,-6.3765,-6.3671,-6.3679,-6.3665,-6.3662,-6.3668,-6.3785,-6.3788,-6.379,-6.3792,0,-6.33,-6.3291,-6.3346,-6.34,-6.3445,-6.3486,-6.3521,-6.3556,-6.353,-6.3577,-6.3643,-6.368,-6.3751,-6.3811,-6.3859,-6.387,-6.3828,-6.3822,-6.3845,-6.3857,-6.3862,-6.3861,-6.3551,-6.3815,-6.3813,-6.3811,-6.381,-6.3809,-6.3477,-6.3539,-6.3567,-6.363,-6.3654,-6.3688,-6.3745,-6.3747,-6.3802,-6.3859,-6.3839,-6.3915,-6.3939,-6.4,-6.4017,-6.4075,-6.4036,-6.4069,-6.4078,-6.4087,-6.4098,-6.3852,-6.4083,-6.4082,-6.4082,-6.4081,-6.4081,0,-6.3715,-6.373,-6.3789,-6.3841,-6.389,-6.3846,-6.3883,-6.3926,-6.3995,-6.4022,-6.407,-6.4145,-6.4203,-6.4206,-6.426,-6.4305,-6.4287,-6.432,-6.4317,-6.432,-6.413,-6.4105,-6.4335,-6.4335,-6.4334,-6.4334,-6.4334,-6.4334,-6.3845,-6.3948,-6.3942,-6.4056,-6.4069,-6.4144,-6.4169,-6.4199,-6.4222,-6.4309,-6.4358,-6.4359,-6.4377,-6.4431,-6.4482,-6.4481,-6.4503,-6.4545,-6.4536,-6.4359,-6.4334,-6.431,-6.4286,-6.4549,-6.455,-6.4721,-6.4723,-6.4724]}]]